Location: Oshawa
(43.9000°N, 78.8670°W)
Time: 23:33:00
(UTC-04:00)

ITAMSAT 1 - Visible Passes

Search period start: 31 July 2015 00:00
Search period end: 10 August 2015 00:00
Orbit: 784 x 797 km, 98.7° (Epoch: 30 July)

Date Brightness Start Highest point End Pass type
(mag) Time Alt. Az. Time Alt. Az. Time Alt. Az.
31 Jul 9.8 02:41:26 10° NE 02:44:46 18° E 02:47:21 13° ESE visible
31 Jul 7.8 04:19:39 10° N 04:24:46 61° WNW 04:28:05 22° SW visible
01 Aug 7.7 03:50:21 10° NNE 03:55:33 75° ESE 03:58:25 27° S visible
01 Aug 9.4 05:31:18 10° NNW 05:34:31 16° WNW 05:37:32 10° W visible
02 Aug 8.6 03:21:20 10° NNE 03:26:11 40° E 03:28:44 25° SSE visible
02 Aug 8.8 05:01:10 10° N 05:05:33 28° WNW 05:09:28 12° WSW visible
03 Aug 9.5 02:52:43 10° NE 02:56:40 22° E 02:59:03 17° SE visible
03 Aug 8.0 04:31:30 10° N 04:36:28 48° WNW 04:39:47 20° SW visible
04 Aug 10.1 02:25:16 10° ENE 02:26:58 12° E 02:28:59 10° ESE visible
04 Aug 7.6 04:02:05 10° NNE 04:07:17 87° WNW 04:10:06 28° SSW visible
05 Aug 8.2 03:32:56 10° NNE 03:37:59 51° E 03:40:25 29° SSE visible
05 Aug 9.1 05:13:11 10° NNW 05:17:12 22° WNW 05:21:04 10° WSW visible
06 Aug 9.2 03:04:08 10° NE 03:08:32 28° E 03:10:44 21° SE visible
06 Aug 8.3 04:43:22 10° N 04:48:09 38° WNW 04:51:28 18° SW visible
07 Aug 9.9 02:36:01 10° NE 02:38:54 15° E 02:41:03 13° ESE visible
07 Aug 7.6 04:13:51 10° N 04:19:01 69° WNW 04:21:47 28° SSW visible
08 Aug 7.9 03:44:36 10° NNE 03:49:46 66° ESE 03:52:06 32° S visible
08 Aug 9.3 05:25:17 10° NNW 05:28:49 18° WNW 05:32:10 10° WSW visible
09 Aug 8.8 03:15:39 10° NNE 03:20:22 36° E 03:22:25 26° SE visible
09 Aug 8.6 04:55:17 10° N 04:59:49 31° WNW 05:03:09 16° WSW visible
